Regional Weather Roundup
Issued by NWS Sterling, VA

Home | Current Version | Previous Version | Graphics & Text | Print | Product List | Glossary On
Versions: 1 2 3 4 5 6 7 8 9 10 11 12 13 14 15 16 17 18 19 20 21 22 23 24 25 26 27 28 29 30 31 32 33 34 35 36 37 38 39 40 41 42 43 44 45 46 47 48 49 50
000
ASUS41 KLWX 280510
RWRLWX

REGIONAL WEATHER ROUNDUP
NATIONAL WEATHER SERVICE BALTIMORE MD/WASHINGTON DC
100 AM EDT SAT MAR 28 2015

Note: "FAIR" indicates few or no clouds below 12,000 feet
with no significant weather and/or obstructions to visibility.
 TC=TEMPERATURE CELSIUS

 * =Non NWS site. Station does not report precipitation (e.g. rain,
    snow, etc.), thunder, or fog.

DCZ001-MDZ009-015-VAZ040>042-051-053>054-280600-
WASHINGTON METRO

CITY           SKY/WX    TMP DP  RH WIND       PRES   REMARKS
WASHINGTON NAT PTCLDY    42  24  49 NW21G28   29.85R
DULLES         PTCLDY    37  24  59 N12       29.86R
ANDREWS AFB    PTCLDY    39  23  52 N12       29.82R
FT BELVOIR     PTCLDY    40  24  52 NW13G20   29.85R
QUANTICO       CLOUDY    41  24  51 N15G28    29.86R
COLLEGE PARK*  PTCLDY    41  25  52 N6        29.84S
LEESBURG*      CLEAR     36  28  75 N10       29.88R WCI  28
MANASSAS*      MOCLDY    37  27  65 N18G25    29.86S WCI  27
GAITHERSBURG*  CLEAR     36  21  55 NW10      29.88R WCI  28

$$

MDZ006>007-011-014-280600-
BALTIMORE METRO

CITY           SKY/WX    TMP DP  RH WIND       PRES   REMARKS
BWI AIRPORT    PTCLDY    39  24  55 NW13G20   29.83R
MD SCIENCE CTR   N/A     41  22  46 MISG      29.82S
MARTIN STATE   MOCLDY    41  27  56 NW10      29.84S
ANNAPOLIS      MOCLDY    42  26  53 N15G24    29.82S

$$

MDZ012-015-019>023-280600-
MARYLAND EASTERN SHORE

CITY           SKY/WX    TMP DP  RH WIND       PRES   REMARKS
OCEAN CITY     CLOUDY    39  37  92 NW7       29.78S FOG
SALISBURY      CLOUDY    40  38  93 NW7       29.78S FOG
BAY BRIDGE AP*   N/A     41  28  60 N9G18     29.82S
CAMBRIDGE*     MOCLDY    43  34  70 N8G16     29.79F
EASTON*        MOCLDY    43  32  66 N8        29.84S

$$

MDZ017>025-280600-
SOUTHERN MARYLAND

CITY           SKY/WX    TMP DP  RH WIND       PRES   REMARKS
PATUXENT RIVER MOCLDY    41  33  73 NW12      29.81S
ST INIGOES     MOCLDY    40  36  86 NW3       29.80F
LEONARDTOWN*   MOCLDY    37  32  81 NW6       29.82S

$$

MDZ003>005-280600-
NORTH CENTRAL MARYLAND

CITY           SKY/WX    TMP DP  RH WIND       PRES   REMARKS
FREDERICK*     MOCLDY    36  19  51 N8        29.90S
HAGERSTOWN APT PTCLDY    32  21  64 NW10      29.88R WCI  24
WESTMINSTER*   CLOUDY    36  23  60 N9G17     29.84S WCI  29

$$

MDZ501>502-280600-
WESTERN MARYLAND

CITY           SKY/WX    TMP DP  RH WIND       PRES   REMARKS
OAKLAND*       CLOUDY    19 N/A N/A NW10      29.82F FOG     WCI   8
CUMBERLAND*    MOCLDY    32  18  55 NW7       29.96F

$$

VAZ025>031-280600-
SHENANDOAH VALLEY

CITY           SKY/WX    TMP DP  RH WIND       PRES   REMARKS
WINCHESTER*    PTCLDY    34  18  51 NW10G18   29.87S WCI  26
FRONT ROYAL*   CLOUDY    34  21  60 N7G20     29.87R
LURAY*         MOCLDY    36  27  69 N14G20    29.86S WCI  27
NEW MARKET*    CLOUDY    33  23  65 N5        29.87R
STAUNTON*      CLOUDY    36  23  58 NW10      29.86R WCI  28
WAYNESBORO*    MOCLDY    33  22  64 NW5       29.83S

$$

WVZ021-048>050-054>055-280600-
EASTERN WEST VIRGINIA PANHANDLE

CITY           SKY/WX    TMP DP  RH WIND       PRES   REMARKS
MARTINSBURG    PTCLDY    34  17  50 NW17      29.90R WCI  23
PETERSBURG*    MOCLDY    31  18  59 NW7       29.92S

$$

VAZ036>039-050-280600-
CENTRAL FOOTHILLS

CITY           SKY/WX    TMP DP  RH WIND       PRES   REMARKS
CHARLOTTESVILL CLOUDY    40  26  57 N8        29.84R
CULPEPER*      CLOUDY    39  27  60 N10       29.86S
ORANGE*        CLOUDY    41  28  60 N8        29.86R
GORDONSVILLE*  CLOUDY    40  27  60 N5        29.83S
WARRENTON*     CLOUDY    40  31  71 NW14G23   29.85S

$$

VAZ055>057-280600-
NORTH AND CENTRAL PIEDMONT

CITY           SKY/WX    TMP DP  RH WIND       PRES   REMARKS
FREDERICKSBRG* CLOUDY    42  26  52 NW7G16    29.84S
STAFFORD*      CLOUDY    38  24  57 N9        29.89S

$$

NCZ024-NYZ072-PAZ021-071-VAZ022-071-280600-
OTHER REGIONAL OBSERVATIONS

CITY           SKY/WX    TMP DP  RH WIND       PRES   REMARKS
NEW YORK CITY  CLOUDY    40  24  53 N8        29.80F
PHILADELPHIA   MOCLDY    41  23  48 N10       29.81S
PITTSBURGH     MOCLDY    20  11  68 N15       30.01R WCI   6
ROANOKE        MOCLDY    36  21  54 NW14G23   29.89R WCI  27
RICHMOND       MOCLDY    41  33  73 N9        29.82S
RALEIGH        CLOUDY    41  38  89 CALM      29.85R

$$

ANZ530>537-280600-
MARINE OBSERVATIONS

STATION/POSITION TIME  TEMP    WIND        PRES
                       AIR SEA DIR/SP/G
                 (UTC) (F)     (DEG/KT/KT) (MB)
THOMAS PT LIGHT  0500                        N/A
BALT KEY BRIDGE  0400   43     320/ 15/ 17 1009.7R
COVE POINT       0400   41     330/  8/ 11 1009.2S
LEWISETTA        0400   40 45              1009.0F
SOLOMONS ISLAND  0412      43                N/A
PINEY POINT      0406          320/  8/  8   N/A

$$



USA.gov is the U.S. government's official web portal to all federal, state and local government web resources and services.